Regional Weather Roundup
Issued by NWS Newport/Morehead, NC

Home | Current Version | Previous Version | Text Only | Print | Product List | Glossary On
Versions: 1 2 3 4 5 6 7 8 9 10 11 12 13 14 15 16 17 18 19 20 21 22 23 24 25 26 27 28 29 30 31 32 33 34 35 36 37 38 39 40 41 42 43 44 45 46 47 48 49 50
000
ASUS42 KMHX 280724
RWRMHX
WEATHER ROUNDUP FOR EASTERN NORTH CAROLINA
NATIONAL WEATHER SERVICE NEWPORT/MOREHEAD CITY NC
300 AM EDT TUE APR 28 2015

NOTE: "FAIR" INDICATES FEW OR NO CLOUDS BELOW 12,000 FEET
WITH NO SIGNIFICANT WEATHER AND/OR OBSTRUCTIONS TO VISIBILITY

NCZ015>017-031-032-045>047-102-103-280800-
NORTH COAST

CITY           SKY/WX    TMP DP  RH WIND       PRES   REMARKS
EDENTON        CLEAR     47  39  72 N8        29.88S
ELIZABETH CITY CLEAR     48  38  68 NW8       29.87S
KITTY HAWK     SUNNY     52  41  66 NW6       29.84R
MANTEO         CLEAR     53  40  61 N9G16     29.85S

$$

NCZ045>047-081-094-103-104-280800-
CENTRAL COAST

CITY           SKY/WX    TMP DP  RH WIND       PRES   REMARKS
FRISCO         CLEAR     52  38  58 VRB6      29.85S
SWANQUARTER      N/A     46 N/A N/A NW6       29.82S

$$

NCZ095-097-098-100-101-280800-
SOUTHERN COAST

CITY           SKY/WX    TMP DP  RH WIND       PRES   REMARKS
BEAUFORT       CLEAR     50  43  77 N6        29.87F
CEDAR ISLAND     N/A     59 N/A N/A NW10G17   29.91R
JACKSONVILLE   CLEAR     48  41  76 NW3       29.89S
PINEY ISLAND   SUNNY    N/A N/A N/A N8        29.87S
WILMINGTON     PTCLDY    51  38  60 N5        29.89F


$$

NCZ011>013-027>030-043-044-078>080-089-090>093-098-280800-
COASTAL PLAIN

CITY           SKY/WX    TMP DP  RH WIND       PRES   REMARKS
AHOSKIE        CLEAR     42  37  82 CALM      29.90R
CLINTON        PTCLDY    45  43  91 CALM      29.92S
ELIZABETHTOWN  PTCLDY    49  37  64 CALM      29.91S
GOLDSBORO      CLEAR     51  37  58 CALM      29.89S
GREENVILLE     CLEAR     45  39  81 CALM      29.92S
HAVELOCK       CLEAR     48  42  80 NW3       29.88F
KENANSVILLE    CLEAR     43  39  84 CALM      29.92S
KINSTON        CLEAR     45  41  86 CALM      29.91R
NEW BERN       CLEAR     47  41  80 CALM      29.89F
RICHLANDS      CLEAR     43  37  81 CALM      29.91R
ROCKY MOUNT    CLEAR     41  39  93 CALM      29.91S
WASHINGTON       N/A     46  38  74 NW3       29.90R
WHITEVILLE     PTCLDY    53  35  51 CALM      29.90S

$$

AMZ130-135-150-152-154-156-158-170-250-252-270-ANZ085-086-088-633-658-670-280800-
MARINE OBSERVATIONS

STATION/POSITION TIME  TEMP    WIND        PRES    WAVE   SWELL
                       AIR SEA DIR/SP/G            HT/PER HT/PER
                 (UTC) (F)     (DEG/KT/KT) (MB)    (FT/S) (FT/S)
CHESAPEAKE LIGHT 0700   52     340/ 26/ 28 1010.3
64 E VA BEACH    0650   54 57  330/ 21/ 27 1008.3    3/ 4   2/ 7
DUCK             0612          300/  8/ 10   N/A
2 E DUCK         0611      55                N/A     2/ 8
OREGON INLET     0600   53 58  330/  5/  6 1010.5
13E OREGON INLT  NOT AVBL
HATTERAS CG      0600   58 63  340/ 10/ 14 1010.3
DIAMOND BUOY     0650   59 74  340/ 12/ 16 1010.4    3/ 8   3/ 8
CAPE LOOKOUT     0700   58     360/  9/ 12 1010.9
BEAUFORT LAB     0600   56 62   20/  4/  6 1010.7
27 SE WRIGHTSVLE 0700   60 72   30/ 17/ 21   N/A
5 SE WRIGHTSVLE  0608   60 65   10/ 17/ 21 1011.5
225 S CAPE HAT   0650   66 70  350/  4/  6 1010.3    5/ 8   5/ 8
41 SE CHARLESTON 0650   67 72  330/  6/  8 1011.3    2/ 9   2/ 9

$$


USA.gov is the U.S. government's official web portal to all federal, state and local government web resources and services.